M I D A S
Marine Information and Data Acquisition System
Tripno 2190 of the Zeeleeuw from 2011-10-03 05:13:32 to 2011-10-03 15:36:37
Back to CruiseResearch ActivitiesStationsMapUnderway DataData graphs

EquipmentUnitsComments
TimeDGPSUTC
LatitudeDGPSDM.mWGS84
LongitudeDGPSDM.mWGS84
SpeedMeteo Stationm/sRelative wind speed
DirectionMeteo StationdegRelative wind direction
TemperatureMeteo Stationdeg CelciusAir temperature
PressureMeteo StationPaAtmospheric pressure
HumidityMeteo Station%Relative humidity
Missing or incorrect values are displayed as -999
Metereological data collected by the RV Zeeleeuw from 2011-10-03 05:03:12 to 2011-10-03 15:48:07
                                                                                    Next 1000 lines
Time Latitude Longitude Speed Direction Temperature Pressure Humidity
2011-10-03 05:03:21 51°13.636 2°56.018 -999 13 14.9 102040 49
2011-10-03 05:03:26 51°13.636 2°56.018 -999 10 14.9 102050 49
2011-10-03 05:03:31 51°13.636 2°56.018 -999 20 14.9 102050 49
2011-10-03 05:03:36 51°13.636 2°56.018 -999 10 14.9 102040 49
2011-10-03 05:03:41 51°13.636 2°56.018 -999 11 14.9 102040 49
2011-10-03 05:03:46 51°13.636 2°56.018 -999 21 14.9 102040 49
2011-10-03 05:03:50 51°13.636 2°56.018 -999 19 14.9 102040 49
2011-10-03 05:03:55 51°13.636 2°56.017 0.4 22 14.9 102040 49
2011-10-03 05:04:01 51°13.636 2°56.014 0.2 25 14.9 102040 49
2011-10-03 05:04:06 51°13.637 2°56.011 0.2 23 14.9 102050 48
2011-10-03 05:04:10 51°13.638 2°56.008 0.1 26 14.9 102050 48
2011-10-03 05:04:15 51°13.638 2°56.004 0.1 31 14.9 102040 48
2011-10-03 05:04:21 51°13.64 2°55.997 0.1 28 14.9 102040 48
2011-10-03 05:04:26 51°13.641 2°55.991 -999 33 14.9 102050 49
2011-10-03 05:04:32 51°13.644 2°55.983 -999 35 14.9 102050 49
2011-10-03 05:04:38 51°13.646 2°55.975 -999 30 14.9 102050 49
2011-10-03 05:04:44 51°13.648 2°55.966 -999 44 14.9 102050 49
2011-10-03 05:04:50 51°13.651 2°55.956 -999 34 14.9 102050 49
2011-10-03 05:04:55 51°13.653 2°55.947 -999 55 14.9 102050 49
2011-10-03 05:04:59 51°13.655 2°55.94 -999 24 14.9 102040 49
2011-10-03 05:05:05 51°13.658 2°55.93 -999 36 14.9 102040 49
2011-10-03 05:05:10 51°13.66 2°55.921 -999 36 14.9 102050 49
2011-10-03 05:05:15 51°13.662 2°55.911 0.4 41 14.9 102050 49
2011-10-03 05:05:19 51°13.665 2°55.904 0.1 40 14.9 102050 49
2011-10-03 05:05:24 51°13.667 2°55.896 1.6 33 14.9 102050 49
2011-10-03 05:05:30 51°13.67 2°55.885 2 40 14.9 102040 48
2011-10-03 05:05:35 51°13.672 2°55.876 2.7 50 14.9 102040 48
2011-10-03 05:05:39 51°13.674 2°55.869 1.5 31 14.9 102050 49
2011-10-03 05:05:44 51°13.677 2°55.86 2.6 41 14.9 102050 49
2011-10-03 05:05:49 51°13.68 2°55.852 2.5 31 14.9 102050 49
2011-10-03 05:05:55 51°13.683 2°55.841 2.3 28 14.9 102050 49
2011-10-03 05:05:59 51°13.686 2°55.834 2 26 14.9 102050 48
2011-10-03 05:06:04 51°13.689 2°55.825 2.3 30 14.9 102050 48
2011-10-03 05:06:09 51°13.693 2°55.816 2.1 28 14.9 102050 49
2011-10-03 05:06:14 51°13.697 2°55.807 2.3 36 14.9 102050 49
2011-10-03 05:06:19 51°13.701 2°55.798 0.2 27 14.9 102050 49
2011-10-03 05:06:24 51°13.705 2°55.79 0.1 34 14.9 102050 49
2011-10-03 05:06:29 51°13.71 2°55.781 -999 32 14.9 102050 49
2011-10-03 05:06:34 51°13.714 2°55.772 0.1 40 14.9 102050 49
2011-10-03 05:06:39 51°13.719 2°55.764 0.9 30 14.9 102050 49
2011-10-03 05:06:44 51°13.724 2°55.756 0.1 39 14.9 102050 49
2011-10-03 05:06:49 51°13.73 2°55.748 0.3 36 14.9 102050 49
2011-10-03 05:06:54 51°13.735 2°55.74 0.1 22 14.9 102050 49
2011-10-03 05:06:59 51°13.741 2°55.732 0.1 31 14.9 102050 49
2011-10-03 05:07:04 51°13.746 2°55.724 -999 40 14.9 102050 49
2011-10-03 05:07:09 51°13.752 2°55.717 0.5 19 14.9 102050 49
2011-10-03 05:07:14 51°13.758 2°55.709 0.2 42 14.9 102050 49
2011-10-03 05:07:19 51°13.764 2°55.702 0.1 19 14.9 102050 49
2011-10-03 05:07:24 51°13.77 2°55.695 0.1 41 14.9 102050 49
2011-10-03 05:07:29 51°13.776 2°55.688 0.1 45 14.9 102050 49
2011-10-03 05:07:34 51°13.782 2°55.682 0.1 42 14.9 102050 49
2011-10-03 05:07:39 51°13.789 2°55.675 0.1 29 14.9 102050 49
2011-10-03 05:07:44 51°13.795 2°55.669 -999 34 14.9 102050 49
2011-10-03 05:07:49 51°13.802 2°55.663 1.6 33 14.9 102050 49
2011-10-03 05:07:55 51°13.81 2°55.656 1.2 30 14.9 102050 49
2011-10-03 05:08:00 51°13.816 2°55.65 0.3 23 14.9 102050 49
2011-10-03 05:08:04 51°13.822 2°55.646 0.1 20 14.9 102050 49
2011-10-03 05:08:09 51°13.829 2°55.64 0.1 33 15 102050 47
2011-10-03 05:08:15 51°13.837 2°55.634 -999 32 15 102050 47
2011-10-03 05:08:20 51°13.844 2°55.629 2.2 26 15 102050 49
2011-10-03 05:08:24 51°13.85 2°55.626 1.9 18 15 102050 49
2011-10-03 05:08:29 51°13.857 2°55.621 0.3 6 15 102050 49
2011-10-03 05:08:34 51°13.864 2°55.617 0.1 22 15 102050 49
2011-10-03 05:08:40 51°13.873 2°55.613 0.1 16 15 102050 49
2011-10-03 05:08:44 51°13.878 2°55.61 0.1 17 15 102050 49
2011-10-03 05:08:49 51°13.885 2°55.608 1.1 23 15 102050 49
2011-10-03 05:08:54 51°13.891 2°55.606 0.4 13 15 102050 49
2011-10-03 05:08:59 51°13.898 2°55.604 0.8 13 15 102050 49
2011-10-03 05:09:04 51°13.904 2°55.603 0.1 358 15 102050 49
2011-10-03 05:09:09 51°13.91 2°55.603 0.1 352 15.1 102050 49
2011-10-03 05:09:14 51°13.915 2°55.602 -999 306 15.1 102050 49
2011-10-03 05:09:19 51°13.921 2°55.603 0.3 321 15.1 102050 49
2011-10-03 05:09:24 51°13.926 2°55.604 0.1 305 15.1 102050 49
2011-10-03 05:09:30 51°13.932 2°55.606 0.1 315 15.1 102050 49
2011-10-03 05:09:34 51°13.936 2°55.607 -999 306 15.1 102050 49
2011-10-03 05:09:40 51°13.942 2°55.609 -999 24 15.1 102050 49
2011-10-03 05:09:45 51°13.946 2°55.611 -999 305 15.1 102050 49
2011-10-03 05:09:50 51°13.95 2°55.614 -999 316 15.2 102050 49
2011-10-03 05:09:55 51°13.954 2°55.617 -999 305 15.2 102050 49
2011-10-03 05:10:00 51°13.958 2°55.62 -999 316 15.2 102050 49
2011-10-03 05:10:05 51°13.961 2°55.623 -999 306 15.2 102050 49
2011-10-03 05:10:10 51°13.964 2°55.626 -999 24 15.2 102050 49
2011-10-03 05:10:15 51°13.967 2°55.628 -999 305 15.2 102050 49
2011-10-03 05:10:20 51°13.97 2°55.631 -999 24 15.2 102050 49
2011-10-03 05:10:25 51°13.973 2°55.634 -999 305 15.2 102050 49
2011-10-03 05:10:29 51°13.974 2°55.636 -999 24 15.2 102050 49
2011-10-03 05:10:34 51°13.976 2°55.638 1.1 300 15.2 102050 49
2011-10-03 05:10:39 51°13.978 2°55.64 3.2 27 15.2 102050 49
2011-10-03 05:10:45 51°13.98 2°55.641 1.8 310 15.2 102050 49
2011-10-03 05:10:49 51°13.98 2°55.641 3.2 243 15.3 102050 47
2011-10-03 05:10:54 51°13.98 2°55.64 3.3 301 15.3 102050 47
2011-10-03 05:10:59 51°13.981 2°55.637 2.9 20 15.3 102050 48
2011-10-03 05:11:04 51°13.981 2°55.633 3.6 309 15.3 102050 48
2011-10-03 05:11:09 51°13.981 2°55.628 4.3 29 15.3 102050 49
2011-10-03 05:11:13 51°13.981 2°55.623 0.3 307 15.3 102050 49
2011-10-03 05:11:18 51°13.982 2°55.617 0.2 248 15.3 102050 48
2011-10-03 05:11:23 51°13.984 2°55.61 0.1 305 15.3 102050 48
2011-10-03 05:11:29 51°13.987 2°55.6 -999 24 15.4 102050 49
2011-10-03 05:11:33 51°13.989 2°55.594 -999 306 15.4 102050 49
2011-10-03 05:11:38 51°13.993 2°55.585 -999 248 15.4 102050 49
2011-10-03 05:11:43 51°13.997 2°55.577 -999 305 15.4 102050 49
2011-10-03 05:11:48 51°14.002 2°55.568 -999 24 15.4 102050 49
2011-10-03 05:11:53 51°14.007 2°55.558 -999 305 15.4 102050 49
2011-10-03 05:11:57 51°14.013 2°55.551 -999 24 15.4 102050 49
2011-10-03 05:12:02 51°14.02 2°55.541 -999 305 15.4 102050 49
2011-10-03 05:12:07 51°14.027 2°55.533 -999 249 15.4 102050 49
2011-10-03 05:12:12 51°14.036 2°55.524 -999 305 15.4 102050 49
2011-10-03 05:12:17 51°14.044 2°55.514 -999 254 15.4 102050 49
2011-10-03 05:12:21 51°14.051 2°55.507 -999 305 15.4 102050 49
2011-10-03 05:12:27 51°14.063 2°55.495 -999 24 15.4 102050 49
2011-10-03 05:12:32 51°14.072 2°55.486 -999 305 15.4 102050 49
2011-10-03 05:12:36 51°14.08 2°55.478 -999 24 15.5 102040 49
2011-10-03 05:12:41 51°14.091 2°55.468 -999 305 15.5 102040 49
2011-10-03 05:12:46 51°14.101 2°55.458 -999 24 15.5 102050 49
2011-10-03 05:12:51 51°14.111 2°55.449 -999 305 15.5 102050 49
2011-10-03 05:12:57 51°14.124 2°55.437 -999 24 15.5 102050 49
2011-10-03 05:13:01 51°14.133 2°55.429 -999 305 15.5 102050 49
2011-10-03 05:13:06 51°14.144 2°55.419 -999 24 15.5 102050 49
2011-10-03 05:13:12 51°14.156 2°55.407 -999 305 15.5 102050 49
2011-10-03 05:13:17 51°14.168 2°55.397 -999 24 15.5 102050 49
2011-10-03 05:13:21 51°14.176 2°55.388 -999 305 15.5 102050 49
2011-10-03 05:13:26 51°14.187 2°55.378 -999 24 15.5 102050 47
2011-10-03 05:13:31 51°14.198 2°55.367 -999 305 15.5 102050 47
2011-10-03 05:13:37 51°14.212 2°55.355 -999 24 15.5 102050 48
2011-10-03 05:13:41 51°14.22 2°55.346 -999 305 15.5 102050 48
2011-10-03 05:13:46 51°14.231 2°55.336 -999 24 15.6 102050 48
2011-10-03 05:13:51 51°14.242 2°55.325 -999 305 15.6 102050 48
2011-10-03 05:13:57 51°14.256 2°55.313 -999 249 15.6 102050 48
2011-10-03 05:14:01 51°14.265 2°55.304 -999 305 15.6 102050 48
2011-10-03 05:14:06 51°14.275 2°55.293 -999 24 15.6 102040 48
2011-10-03 05:14:11 51°14.287 2°55.282 0.1 306 15.6 102040 48
2011-10-03 05:14:16 51°14.298 2°55.271 5.6 22 15.6 102040 48
2011-10-03 05:14:21 51°14.309 2°55.259 4.3 307 15.6 102040 48
2011-10-03 05:14:27 51°14.322 2°55.246 2.2 267 15.6 102040 48
2011-10-03 05:14:32 51°14.333 2°55.235 3.9 307 15.6 102040 48
2011-10-03 05:14:37 51°14.344 2°55.224 4 255 15.6 102040 49
2011-10-03 05:14:41 51°14.353 2°55.215 4.9 309 15.6 102040 49
2011-10-03 05:14:47 51°14.366 2°55.203 5.1 256 15.7 102040 48
2011-10-03 05:14:52 51°14.378 2°55.193 4.5 304 15.7 102040 48
2011-10-03 05:14:57 51°14.389 2°55.182 6 253 15.7 102030 48
2011-10-03 05:15:01 51°14.399 2°55.173 3.9 310 15.7 102030 48
2011-10-03 05:15:05 51°14.408 2°55.165 3.7 252 15.7 102040 49
2011-10-03 05:15:12 51°14.423 2°55.15 4 304 15.7 102040 49
2011-10-03 05:15:17 51°14.435 2°55.139 6.6 260 15.8 102040 49
2011-10-03 05:15:21 51°14.444 2°55.13 6.2 301 15.8 102040 49
2011-10-03 05:15:25 51°14.452 2°55.121 7.5 254 15.8 102040 48
2011-10-03 05:15:32 51°14.468 2°55.106 6.4 302 15.8 102040 48
2011-10-03 05:15:37 51°14.478 2°55.094 6.7 254 15.9 102040 48
2011-10-03 05:15:41 51°14.487 2°55.085 7.7 306 15.9 102040 48
2011-10-03 05:15:46 51°14.498 2°55.074 8.4 262 15.9 102050 49
2011-10-03 05:15:50 51°14.507 2°55.065 6.7 302 15.9 102050 49
2011-10-03 05:15:56 51°14.521 2°55.051 7.2 258 16 102040 49
2011-10-03 05:16:01 51°14.532 2°55.039 6.6 302 16 102040 49
2011-10-03 05:16:06 51°14.544 2°55.028 8.3 253 16.1 102040 48
2011-10-03 05:16:11 51°14.556 2°55.017 7 307 16.1 102040 48
2011-10-03 05:16:16 51°14.569 2°55.005 6.8 250 16.2 102040 49
2011-10-03 05:16:21 51°14.582 2°54.994 5.3 308 16.2 102040 49
2011-10-03 05:16:26 51°14.595 2°54.984 4.3 250 16.3 102040 49
2011-10-03 05:16:31 51°14.608 2°54.973 4.8 306 16.3 102040 49
2011-10-03 05:16:37 51°14.624 2°54.96 5.2 253 16.3 102040 48
2011-10-03 05:16:41 51°14.634 2°54.95 6 309 16.3 102040 48
2011-10-03 05:16:46 51°14.647 2°54.938 5.2 254 16.4 102040 49
2011-10-03 05:16:51 51°14.661 2°54.926 5.1 303 16.4 102040 49
2011-10-03 05:16:56 51°14.674 2°54.913 5.1 249 16.5 102040 48
2011-10-03 05:17:01 51°14.688 2°54.9 5.9 306 16.5 102040 48
2011-10-03 05:17:06 51°14.701 2°54.887 6.2 21 16.5 102040 49
2011-10-03 05:17:11 51°14.714 2°54.874 5.6 307 16.5 102040 49
2011-10-03 05:17:16 51°14.728 2°54.861 5.2 247 16.6 102030 48
2011-10-03 05:17:21 51°14.741 2°54.847 5.4 305 16.6 102030 48
2011-10-03 05:17:26 51°14.754 2°54.834 5.5 247 16.6 102040 47
2011-10-03 05:17:31 51°14.768 2°54.82 6.4 307 16.6 102040 47
2011-10-03 05:17:36 51°14.782 2°54.806 5.7 24 16.6 102040 47
2011-10-03 05:17:41 51°14.795 2°54.792 5 308 16.6 102040 47
2011-10-03 05:17:46 51°14.809 2°54.778 6.1 249 16.6 102040 47
2011-10-03 05:17:51 51°14.823 2°54.764 7 309 16.6 102040 47
2011-10-03 05:17:57 51°14.839 2°54.746 5.3 23 16.7 102030 48
2011-10-03 05:18:01 51°14.851 2°54.735 4.4 307 16.7 102030 48
2011-10-03 05:18:06 51°14.865 2°54.72 4.6 246 16.7 102030 48
2011-10-03 05:18:11 51°14.879 2°54.704 5.1 302 16.7 102030 48
2011-10-03 05:18:16 51°14.893 2°54.689 4.7 246 16.7 102040 47
2011-10-03 05:18:21 51°14.907 2°54.674 5.1 303 16.7 102040 47
2011-10-03 05:18:26 51°14.922 2°54.659 5 22 16.7 102030 47
2011-10-03 05:18:31 51°14.936 2°54.644 4.9 302 16.7 102030 47
2011-10-03 05:18:36 51°14.951 2°54.629 4.9 23 16.7 102040 47
2011-10-03 05:18:41 51°14.966 2°54.614 4.8 301 16.7 102040 47
2011-10-03 05:18:46 51°14.98 2°54.599 4.6 22 16.7 102030 45
2011-10-03 05:18:51 51°14.995 2°54.584 5.1 302 16.7 102030 45
2011-10-03 05:18:57 51°15.012 2°54.566 5 26 16.7 102030 46
2011-10-03 05:19:01 51°15.024 2°54.554 4.7 302 16.7 102030 46
2011-10-03 05:19:06 51°15.038 2°54.537 4.9 20 16.7 102030 47
2011-10-03 05:19:11 51°15.052 2°54.521 5 306 16.7 102030 47
2011-10-03 05:19:16 51°15.065 2°54.503 5.5 21 16.7 102030 47
2011-10-03 05:19:21 51°15.078 2°54.486 4.7 301 16.7 102030 47
2011-10-03 05:19:26 51°15.092 2°54.468 5.4 241 16.7 102030 47
2011-10-03 05:19:31 51°15.105 2°54.45 5.3 302 16.7 102030 47
2011-10-03 05:19:36 51°15.117 2°54.432 4.9 26 16.7 102030 47
2011-10-03 05:19:41 51°15.13 2°54.414 5.6 303 16.7 102030 47
2011-10-03 05:19:46 51°15.143 2°54.396 6.1 28 16.7 102030 46
2011-10-03 05:19:51 51°15.156 2°54.378 5.4 303 16.7 102030 46
2011-10-03 05:19:56 51°15.17 2°54.36 6.3 23 16.7 102030 46
2011-10-03 05:20:01 51°15.183 2°54.342 6.3 308 16.7 102030 46
2011-10-03 05:20:06 51°15.196 2°54.325 5.6 20 16.7 102030 46
2011-10-03 05:20:11 51°15.21 2°54.308 6.7 303 16.7 102030 46
2011-10-03 05:20:16 51°15.224 2°54.291 6.6 246 16.7 102030 47
2011-10-03 05:20:21 51°15.238 2°54.275 5.6 306 16.7 102030 47
2011-10-03 05:20:26 51°15.253 2°54.26 6.2 22 16.7 102030 46
2011-10-03 05:20:31 51°15.267 2°54.244 5.6 301 16.7 102030 46
2011-10-03 05:20:36 51°15.282 2°54.229 5.4 245 16.7 102030 47
2011-10-03 05:20:41 51°15.297 2°54.215 5.3 307 16.7 102030 47
2011-10-03 05:20:46 51°15.312 2°54.199 6.2 21 16.7 102030 47
2011-10-03 05:20:51 51°15.326 2°54.184 6.1 303 16.7 102030 47
2011-10-03 05:20:56 51°15.34 2°54.168 6 244 16.7 102030 47
2011-10-03 05:21:01 51°15.354 2°54.152 6.3 308 16.7 102030 47
2011-10-03 05:21:06 51°15.368 2°54.135 6.4 25 16.8 102030 48
2011-10-03 05:21:11 51°15.382 2°54.119 6.9 309 16.8 102030 48
2011-10-03 05:21:16 51°15.396 2°54.102 6 21 16.8 102030 48
2011-10-03 05:21:21 51°15.41 2°54.086 6.6 306 16.8 102030 48
2011-10-03 05:21:26 51°15.424 2°54.069 5.2 28 16.8 102030 46
2011-10-03 05:21:31 51°15.438 2°54.052 6.5 301 16.8 102030 46
2011-10-03 05:21:36 51°15.452 2°54.036 5.6 24 16.8 102030 48
2011-10-03 05:21:41 51°15.465 2°54.019 7.3 301 16.8 102030 48
2011-10-03 05:21:46 51°15.479 2°54.002 6.4 23 16.8 102030 48
2011-10-03 05:21:51 51°15.493 2°53.985 6.7 309 16.8 102030 48
2011-10-03 05:21:56 51°15.507 2°53.968 6.6 244 16.8 102020 48
2011-10-03 05:22:01 51°15.52 2°53.951 5.7 302 16.8 102020 48
2011-10-03 05:22:06 51°15.534 2°53.934 6.1 244 16.8 102020 47
2011-10-03 05:22:11 51°15.548 2°53.918 6.1 305 16.8 102020 47
2011-10-03 05:22:16 51°15.561 2°53.9 6.3 21 16.8 102020 47
2011-10-03 05:22:21 51°15.575 2°53.883 7 304 16.8 102020 47
2011-10-03 05:22:26 51°15.588 2°53.866 5.8 27 16.8 102020 47
2011-10-03 05:22:31 51°15.601 2°53.847 7 306 16.8 102020 47
2011-10-03 05:22:36 51°15.613 2°53.828 7.8 28 16.8 102020 47
2011-10-03 05:22:41 51°15.625 2°53.81 6 303 16.8 102020 47
2011-10-03 05:22:46 51°15.637 2°53.79 6.5 25 16.8 102030 48
2011-10-03 05:22:51 51°15.649 2°53.771 6.5 303 16.8 102030 48
2011-10-03 05:22:56 51°15.661 2°53.752 7.3 25 16.8 102020 47
2011-10-03 05:23:01 51°15.673 2°53.732 6.6 308 16.8 102020 47
2011-10-03 05:23:06 51°15.685 2°53.713 6.9 19 16.8 102020 47
2011-10-03 05:23:11 51°15.697 2°53.694 6.4 303 16.8 102020 47
2011-10-03 05:23:16 51°15.709 2°53.675 6.1 243 16.8 102020 47
2011-10-03 05:23:21 51°15.722 2°53.657 7 279 16.8 102020 47
2011-10-03 05:23:26 51°15.735 2°53.639 5.7 243 16.8 102020 47
2011-10-03 05:23:31 51°15.748 2°53.622 6.5 306 16.8 102020 47
2011-10-03 05:23:36 51°15.761 2°53.604 6.9 22 16.8 102010 48
2011-10-03 05:23:41 51°15.775 2°53.587 5.7 308 16.8 102010 48
2011-10-03 05:23:46 51°15.789 2°53.571 6.7 27 16.8 102020 47
2011-10-03 05:23:51 51°15.803 2°53.555 5.4 307 16.8 102020 47
2011-10-03 05:23:56 51°15.817 2°53.54 5.4 21 16.8 102010 48
2011-10-03 05:24:01 51°15.832 2°53.525 5.2 303 16.8 102010 48
2011-10-03 05:24:06 51°15.847 2°53.511 7 27 16.8 102020 47
2011-10-03 05:24:11 51°15.862 2°53.497 4.7 302 16.8 102020 47
2011-10-03 05:24:16 51°15.877 2°53.483 5 246 16.8 102020 48
2011-10-03 05:24:21 51°15.893 2°53.47 6.4 278 16.8 102020 48
2011-10-03 05:24:26 51°15.908 2°53.457 6.1 249 16.8 102020 48
2011-10-03 05:24:31 51°15.924 2°53.445 4.7 310 16.8 102020 48
2011-10-03 05:24:36 51°15.94 2°53.433 5.2 252 16.8 102010 48
2011-10-03 05:24:41 51°15.956 2°53.421 5.7 308 16.8 102010 48
2011-10-03 05:24:46 51°15.972 2°53.41 5.5 250 16.8 102020 48
2011-10-03 05:24:51 51°15.988 2°53.398 4.6 307 16.8 102020 48
2011-10-03 05:24:56 51°16.004 2°53.387 5.4 21 16.8 102020 48
2011-10-03 05:25:01 51°16.02 2°53.375 5.1 301 16.8 102020 48
2011-10-03 05:25:06 51°16.036 2°53.364 5.4 21 16.8 102020 47
2011-10-03 05:25:11 51°16.052 2°53.352 4.8 303 16.8 102020 47
2011-10-03 05:25:16 51°16.068 2°53.341 5.1 246 16.8 102020 48
2011-10-03 05:25:21 51°16.084 2°53.329 5.5 284 16.8 102020 48
2011-10-03 05:25:26 51°16.1 2°53.318 5.8 252 16.8 102020 48
2011-10-03 05:25:31 51°16.117 2°53.308 4.2 301 16.8 102020 48
2011-10-03 05:25:36 51°16.134 2°53.299 4.3 20 16.8 102010 48
2011-10-03 05:25:41 51°16.151 2°53.29 4.2 305 16.8 102010 48
2011-10-03 05:25:46 51°16.168 2°53.281 5.4 251 16.8 102010 48
2011-10-03 05:25:51 51°16.185 2°53.272 3.8 306 16.8 102010 48
2011-10-03 05:25:56 51°16.202 2°53.264 4.5 23 16.8 102010 47
2011-10-03 05:26:01 51°16.219 2°53.256 3.7 308 16.8 102010 47
2011-10-03 05:26:06 51°16.237 2°53.25 4.4 255 16.8 102020 48
2011-10-03 05:26:11 51°16.254 2°53.243 4.5 301 16.8 102020 48
2011-10-03 05:26:16 51°16.273 2°53.237 3.8 252 16.7 102020 47
2011-10-03 05:26:21 51°16.29 2°53.231 4 279 16.7 102020 47
2011-10-03 05:26:26 51°16.308 2°53.224 3.9 250 16.7 102020 48
2011-10-03 05:26:31 51°16.325 2°53.216 5.1 301 16.7 102020 48
2011-10-03 05:26:36 51°16.342 2°53.207 4.5 251 16.7 102020 47
2011-10-03 05:26:41 51°16.359 2°53.198 5.2 308 16.7 102020 47
2011-10-03 05:26:46 51°16.376 2°53.188 4.6 253 16.7 102020 46
2011-10-03 05:26:51 51°16.393 2°53.18 4.9 304 16.7 102020 46
2011-10-03 05:26:56 51°16.409 2°53.17 4.5 248 16.7 102010 48
2011-10-03 05:27:01 51°16.426 2°53.16 5.5 310 16.7 102010 48
2011-10-03 05:27:06 51°16.442 2°53.149 5.3 22 16.7 102020 48
2011-10-03 05:27:11 51°16.458 2°53.137 4.8 308 16.7 102020 48
2011-10-03 05:27:16 51°16.475 2°53.126 4.7 23 16.7 102010 47
2011-10-03 05:27:21 51°16.491 2°53.114 4.8 283 16.7 102010 47
2011-10-03 05:27:26 51°16.506 2°53.102 5.1 26 16.7 102020 48
2011-10-03 05:27:31 51°16.522 2°53.089 5.4 301 16.7 102020 48
2011-10-03 05:27:36 51°16.538 2°53.077 4.9 20 16.7 102010 48
2011-10-03 05:27:41 51°16.554 2°53.065 5.3 303 16.7 102010 48
2011-10-03 05:27:46 51°16.57 2°53.052 4.6 23 16.6 102010 48
2011-10-03 05:27:51 51°16.586 2°53.04 4.9 307 16.6 102010 48
2011-10-03 05:27:56 51°16.601 2°53.027 4.9 22 16.6 102010 48
2011-10-03 05:28:01 51°16.617 2°53.013 4.9 306 16.6 102010 48
2011-10-03 05:28:06 51°16.633 2°53.001 5.3 27 16.6 102010 48
2011-10-03 05:28:11 51°16.649 2°52.989 5.7 306 16.6 102010 48
2011-10-03 05:28:16 51°16.665 2°52.977 4.7 25 16.6 102010 48
2011-10-03 05:28:21 51°16.681 2°52.966 5.7 280 16.6 102010 48
2011-10-03 05:28:26 51°16.697 2°52.954 5.3 244 16.6 102010 48
2011-10-03 05:28:31 51°16.713 2°52.944 4.7 307 16.6 102010 48
2011-10-03 05:28:36 51°16.73 2°52.934 4.4 250 16.6 102010 48
2011-10-03 05:28:41 51°16.747 2°52.925 3.7 307 16.6 102010 48
2011-10-03 05:28:45 51°16.761 2°52.918 2.8 249 16.6 102010 49
2011-10-03 05:28:51 51°16.781 2°52.908 3.8 303 16.6 102010 49
2011-10-03 05:28:56 51°16.798 2°52.899 3.8 19 16.6 102010 48
2011-10-03 05:29:01 51°16.815 2°52.889 4.4 300 16.6 102010 48
2011-10-03 05:29:06 51°16.832 2°52.88 4.7 248 16.6 102020 49
2011-10-03 05:29:11 51°16.849 2°52.871 4 303 16.6 102020 49
2011-10-03 05:29:16 51°16.866 2°52.863 4.3 249 16.6 102020 48
2011-10-03 05:29:21 51°16.883 2°52.854 3.3 280 16.6 102020 48
2011-10-03 05:29:26 51°16.901 2°52.847 4.8 250 16.6 102010 47
2011-10-03 05:29:31 51°16.918 2°52.839 4.9 302 16.6 102010 47
2011-10-03 05:29:36 51°16.935 2°52.831 5.3 247 16.6 102020 49
2011-10-03 05:29:41 51°16.952 2°52.821 6.1 307 16.6 102020 49
2011-10-03 05:29:46 51°16.969 2°52.811 5.3 247 16.6 102010 49
2011-10-03 05:29:51 51°16.985 2°52.801 5.3 308 16.6 102010 49
2011-10-03 05:29:56 51°17.002 2°52.79 4.9 25 16.6 102010 48
2011-10-03 05:30:01 51°17.018 2°52.778 5.4 305 16.6 102010 48
2011-10-03 05:30:06 51°17.034 2°52.765 5.3 23 16.6 102010 49
2011-10-03 05:30:11 51°17.049 2°52.751 6.9 310 16.6 102010 49
2011-10-03 05:30:16 51°17.064 2°52.737 6 21 16.6 102010 48
2011-10-03 05:30:21 51°17.08 2°52.724 6 280 16.6 102010 48
2011-10-03 05:30:26 51°17.096 2°52.711 6.3 243 16.5 102010 49
2011-10-03 05:30:31 51°17.112 2°52.699 5.3 303 16.5 102010 49
2011-10-03 05:30:36 51°17.128 2°52.687 6.8 21 16.5 102010 48
2011-10-03 05:30:41 51°17.144 2°52.674 6.8 310 16.5 102010 48
2011-10-03 05:30:45 51°17.157 2°52.665 5.3 248 16.5 102020 49
2011-10-03 05:30:51 51°17.177 2°52.653 5.6 303 16.5 102020 49
2011-10-03 05:30:56 51°17.194 2°52.643 5.3 22 16.5 102010 49
2011-10-03 05:31:01 51°17.211 2°52.632 5 309 16.5 102010 49
2011-10-03 05:31:06 51°17.228 2°52.623 5.5 249 16.5 102010 49
2011-10-03 05:31:11 51°17.245 2°52.614 4.3 301 16.5 102010 49
2011-10-03 05:31:16 51°17.263 2°52.608 4.8 249 16.5 102010 49
2011-10-03 05:31:21 51°17.281 2°52.602 4.4 283 16.5 102010 49
2011-10-03 05:31:26 51°17.299 2°52.598 3.6 246 16.5 102020 49
2011-10-03 05:31:31 51°17.317 2°52.593 3.6 301 16.5 102020 49
2011-10-03 05:31:36 51°17.335 2°52.59 2.8 247 16.5 102020 49
2011-10-03 05:31:41 51°17.353 2°52.587 3.4 309 16.5 102020 49
2011-10-03 05:31:46 51°17.371 2°52.586 3.1 251 16.5 102020 48
2011-10-03 05:31:51 51°17.39 2°52.585 2.2 308 16.5 102020 48
2011-10-03 05:31:56 51°17.408 2°52.586 3.4 251 16.5 102010 49
2011-10-03 05:32:01 51°17.427 2°52.585 3.5 308 16.5 102010 49
2011-10-03 05:32:06 51°17.445 2°52.584 2.1 251 16.5 102020 47
2011-10-03 05:32:11 51°17.464 2°52.586 2 307 16.5 102020 47
2011-10-03 05:32:16 51°17.483 2°52.587 1.8 248 16.5 102020 48
2011-10-03 05:32:21 51°17.501 2°52.588 0.3 280 16.5 102020 48
2011-10-03 05:32:26 51°17.52 2°52.59 0.1 254 16.5 102020 49
2011-10-03 05:32:31 51°17.538 2°52.591 0.1 305 16.5 102020 49
2011-10-03 05:32:36 51°17.557 2°52.594 -999 255 16.5 102020 48
2011-10-03 05:32:41 51°17.575 2°52.596 -999 305 16.5 102020 48
2011-10-03 05:32:45 51°17.59 2°52.599 -999 24 16.5 102020 49
2011-10-03 05:32:51 51°17.613 2°52.604 -999 305 16.5 102020 49
2011-10-03 05:32:56 51°17.631 2°52.608 -999 248 16.5 102020 49
2011-10-03 05:33:01 51°17.65 2°52.612 -999 305 16.5 102020 49
2011-10-03 05:33:05 51°17.665 2°52.614 -999 248 16.5 102020 49
2011-10-03 05:33:11 51°17.687 2°52.62 -999 305 16.5 102020 49
2011-10-03 05:33:16 51°17.706 2°52.623 -999 247 16.5 102020 49
2011-10-03 05:33:21 51°17.725 2°52.626 -999 281 16.5 102020 49
2011-10-03 05:33:26 51°17.743 2°52.629 -999 24 16.5 102020 49
2011-10-03 05:33:31 51°17.762 2°52.633 -999 305 16.5 102020 49
2011-10-03 05:33:36 51°17.78 2°52.636 -999 24 16.5 102020 49
2011-10-03 05:33:41 51°17.799 2°52.638 -999 305 16.5 102020 49
2011-10-03 05:33:46 51°17.818 2°52.641 0.1 256 16.5 102020 49
2011-10-03 05:33:51 51°17.836 2°52.643 0.1 305 16.5 102020 49
2011-10-03 05:33:56 51°17.855 2°52.646 0.1 24 16.5 102020 49
2011-10-03 05:34:01 51°17.873 2°52.647 -999 305 16.5 102020 49
2011-10-03 05:34:06 51°17.892 2°52.65 -999 252 16.5 102020 49
2011-10-03 05:34:11 51°17.91 2°52.652 -999 305 16.5 102020 49
2011-10-03 05:34:16 51°17.929 2°52.655 -999 254 16.5 102020 49
2011-10-03 05:34:21 51°17.948 2°52.658 -999 282 16.5 102020 49
2011-10-03 05:34:26 51°17.967 2°52.662 -999 251 16.5 102020 49
2011-10-03 05:34:31 51°17.985 2°52.667 -999 305 16.5 102020 49
2011-10-03 05:34:36 51°18.004 2°52.672 -999 251 16.5 102020 49
2011-10-03 05:34:41 51°18.022 2°52.676 -999 305 16.5 102020 49
2011-10-03 05:34:46 51°18.041 2°52.682 -999 253 16.5 102020 48
2011-10-03 05:34:51 51°18.059 2°52.687 -999 305 16.5 102020 48
2011-10-03 05:34:56 51°18.078 2°52.693 -999 251 16.5 102020 49
2011-10-03 05:35:01 51°18.096 2°52.7 -999 305 16.5 102020 49
2011-10-03 05:35:05 51°18.111 2°52.707 -999 248 16.5 102020 49
2011-10-03 05:35:11 51°18.132 2°52.719 -999 300 16.5 102020 49
2011-10-03 05:35:16 51°18.148 2°52.732 -999 247 16.5 102020 49
2011-10-03 05:35:21 51°18.165 2°52.746 -999 281 16.5 102020 49
2011-10-03 05:35:25 51°18.178 2°52.758 0.1 19 16.5 102020 49
2011-10-03 05:35:31 51°18.197 2°52.778 0.1 9 16.5 102020 49
2011-10-03 05:35:36 51°18.212 2°52.796 0.1 10 16.5 102020 49
2011-10-03 05:35:41 51°18.226 2°52.815 0.1 12 16.5 102020 49
2011-10-03 05:35:46 51°18.24 2°52.835 0.1 1 16.5 102020 49
2011-10-03 05:35:51 51°18.254 2°52.855 0.1 9 16.5 102020 49
2011-10-03 05:35:56 51°18.267 2°52.876 0.1 13 16.5 102020 49
2011-10-03 05:36:01 51°18.28 2°52.899 3 14 16.5 102020 49
2011-10-03 05:36:06 51°18.293 2°52.921 0.3 9 16.5 102020 49
2011-10-03 05:36:11 51°18.306 2°52.943 0.1 13 16.5 102020 49
2011-10-03 05:36:16 51°18.318 2°52.966 0.1 10 16.5 102020 49
2011-10-03 05:36:21 51°18.331 2°52.988 -999 -999 16.5 102020 49
2011-10-03 05:36:26 51°18.344 2°53.011 -999 12 16.5 102010 49
2011-10-03 05:36:31 51°18.356 2°53.034 -999 11 16.5 102010 49
2011-10-03 05:36:36 51°18.369 2°53.057 0.3 10 16.5 102020 50
2011-10-03 05:36:41 51°18.381 2°53.079 0.1 6 16.5 102020 50
2011-10-03 05:36:46 51°18.393 2°53.102 0.1 12 16.5 102020 50
2011-10-03 05:36:51 51°18.406 2°53.125 0.1 9 16.5 102020 50
2011-10-03 05:36:56 51°18.418 2°53.148 0.1 5 16.5 102020 50
2011-10-03 05:37:01 51°18.431 2°53.171 -999 9 16.5 102020 50
2011-10-03 05:37:06 51°18.443 2°53.193 -999 10 16.5 102020 50
2011-10-03 05:37:11 51°18.455 2°53.216 -999 10 16.5 102020 50
2011-10-03 05:37:16 51°18.468 2°53.239 -999 10 16.6 102020 50
2011-10-03 05:37:21 51°18.48 2°53.262 -999 7 16.6 102020 50
2011-10-03 05:37:25 51°18.49 2°53.28 -999 4 16.6 102020 49
2011-10-03 05:37:31 51°18.504 2°53.308 0.2 11 16.6 102020 49
2011-10-03 05:37:36 51°18.517 2°53.33 2 12 16.6 102020 50
2011-10-03 05:37:41 51°18.53 2°53.353 3.6 7 16.6 102020 50
2011-10-03 05:37:46 51°18.543 2°53.375 2.3 8 16.5 102020 49
2011-10-03 05:37:51 51°18.556 2°53.397 2.4 9 16.5 102020 49
2011-10-03 05:37:56 51°18.569 2°53.418 2.9 7 16.6 102020 49
2011-10-03 05:38:01 51°18.582 2°53.439 3.1 11 16.6 102020 49
2011-10-03 05:38:06 51°18.596 2°53.46 3 9 16.6 102020 50
2011-10-03 05:38:11 51°18.61 2°53.482 2.2 13 16.6 102020 50
2011-10-03 05:38:16 51°18.623 2°53.503 2.3 13 16.6 102020 50
2011-10-03 05:38:21 51°18.637 2°53.524 3.1 8 16.6 102020 50
2011-10-03 05:38:26 51°18.65 2°53.545 2.6 9 16.6 102020 49
2011-10-03 05:38:31 51°18.664 2°53.566 2.3 6 16.6 102020 49
2011-10-03 05:38:36 51°18.677 2°53.586 1.8 5 16.6 102020 50
2011-10-03 05:38:41 51°18.691 2°53.607 1.5 12 16.6 102020 50
2011-10-03 05:38:46 51°18.705 2°53.627 1.9 6 16.6 102020 49
2011-10-03 05:38:51 51°18.718 2°53.648 2 360 16.6 102020 49
2011-10-03 05:38:56 51°18.732 2°53.669 2.2 6 16.6 102020 50
2011-10-03 05:39:01 51°18.744 2°53.691 2.8 3 16.6 102020 50
2011-10-03 05:39:06 51°18.756 2°53.714 3.1 7 16.6 102020 50
2011-10-03 05:39:11 51°18.769 2°53.736 3.3 8 16.6 102020 50
2011-10-03 05:39:16 51°18.781 2°53.758 2.8 4 16.6 102030 51
2011-10-03 05:39:21 51°18.794 2°53.781 3.2 9 16.6 102030 51
2011-10-03 05:39:26 51°18.807 2°53.802 2.8 7 16.6 102020 51
2011-10-03 05:39:31 51°18.82 2°53.824 3.3 9 16.6 102020 51
2011-10-03 05:39:36 51°18.833 2°53.846 3.1 8 16.6 102020 50
2011-10-03 05:39:41 51°18.846 2°53.868 2.8 10 16.6 102020 50
2011-10-03 05:39:46 51°18.859 2°53.889 2.3 5 16.7 102020 49
2011-10-03 05:39:51 51°18.872 2°53.912 2.9 359 16.7 102020 49
2011-10-03 05:39:56 51°18.884 2°53.934 3.1 5 16.6 102020 50
2011-10-03 05:40:01 51°18.897 2°53.956 3 9 16.6 102020 50
2011-10-03 05:40:06 51°18.909 2°53.978 3 6 16.6 102020 49
2011-10-03 05:40:11 51°18.921 2°54.001 3.4 10 16.6 102020 49
2011-10-03 05:40:16 51°18.933 2°54.024 3.5 12 16.7 102020 51
2011-10-03 05:40:21 51°18.946 2°54.046 3.4 13 16.7 102020 51
2011-10-03 05:40:26 51°18.958 2°54.069 3.4 15 16.6 102020 49
2011-10-03 05:40:31 51°18.971 2°54.091 3.3 12 16.6 102020 49
2011-10-03 05:40:36 51°18.983 2°54.114 3.4 12 16.6 102020 50
2011-10-03 05:40:41 51°18.996 2°54.135 3.2 13 16.6 102020 50
2011-10-03 05:40:46 51°19.008 2°54.158 3.1 13 16.6 102020 50
2011-10-03 05:40:51 51°19.021 2°54.18 2.8 14 16.6 102020 50
2011-10-03 05:40:56 51°19.033 2°54.202 3 13 16.6 102020 50
2011-10-03 05:41:01 51°19.045 2°54.225 2.9 14 16.6 102020 50
2011-10-03 05:41:06 51°19.058 2°54.247 3.1 13 16.6 102020 49
2011-10-03 05:41:11 51°19.071 2°54.269 3 12 16.6 102020 49
2011-10-03 05:41:16 51°19.083 2°54.291 2.5 9 16.6 102030 50
2011-10-03 05:41:21 51°19.096 2°54.312 2.4 10 16.6 102030 50
2011-10-03 05:41:26 51°19.109 2°54.334 0.3 15 16.6 102030 50
2011-10-03 05:41:31 51°19.122 2°54.355 0.3 14 16.6 102030 50
2011-10-03 05:41:36 51°19.136 2°54.376 0.1 18 16.6 102030 49
2011-10-03 05:41:41 51°19.149 2°54.396 0.1 11 16.6 102030 49
2011-10-03 05:41:45 51°19.16 2°54.413 -999 7 16.6 102030 49
2011-10-03 05:41:51 51°19.176 2°54.438 0.1 -999 16.6 102030 49
2011-10-03 05:41:56 51°19.189 2°54.459 0.1 5 16.6 102030 50
2011-10-03 05:42:01 51°19.202 2°54.48 0.2 2 16.6 102030 50
2011-10-03 05:42:06 51°19.215 2°54.501 0.1 6 16.6 102030 50
2011-10-03 05:42:11 51°19.229 2°54.522 -999 8 16.6 102030 50
2011-10-03 05:42:16 51°19.242 2°54.543 0.1 9 16.6 102030 50
2011-10-03 05:42:21 51°19.255 2°54.564 0.1 2 16.6 102030 50
2011-10-03 05:42:26 51°19.268 2°54.586 1.7 5 16.7 102030 50
2011-10-03 05:42:31 51°19.281 2°54.607 2.5 360 16.7 102030 50
2011-10-03 05:42:36 51°19.295 2°54.628 0.5 6 16.7 102030 50
2011-10-03 05:42:41 51°19.308 2°54.649 0.1 3 16.7 102030 50
2011-10-03 05:42:46 51°19.321 2°54.671 0.1 359 16.7 102030 49
2011-10-03 05:42:51 51°19.334 2°54.692 0.1 4 16.7 102030 49
2011-10-03 05:42:56 51°19.348 2°54.713 0.1 5 16.7 102030 50
2011-10-03 05:43:01 51°19.361 2°54.734 0.1 5 16.7 102030 50
2011-10-03 05:43:06 51°19.374 2°54.756 -999 8 16.8 102030 50
2011-10-03 05:43:11 51°19.387 2°54.777 -999 4 16.8 102030 50
2011-10-03 05:43:16 51°19.4 2°54.799 2.2 8 16.8 102030 50
2011-10-03 05:43:21 51°19.412 2°54.821 0.1 7 16.8 102030 50
2011-10-03 05:43:26 51°19.425 2°54.843 0.1 8 16.8 102030 50
2011-10-03 05:43:31 51°19.438 2°54.866 -999 6 16.8 102030 50
2011-10-03 05:43:36 51°19.45 2°54.888 -999 8 16.8 102030 50
2011-10-03 05:43:41 51°19.462 2°54.912 -999 7 16.8 102030 50
2011-10-03 05:43:46 51°19.475 2°54.934 -999 10 16.8 102030 50
2011-10-03 05:43:51 51°19.487 2°54.957 2.8 7 16.8 102030 50
2011-10-03 05:43:56 51°19.499 2°54.979 2.9 8 16.8 102030 50
2011-10-03 05:44:01 51°19.512 2°55.002 2.9 9 16.8 102030 50
2011-10-03 05:44:06 51°19.524 2°55.025 2.9 8 16.8 102030 50
2011-10-03 05:44:11 51°19.536 2°55.047 2.9 6 16.8 102030 50
2011-10-03 05:44:16 51°19.549 2°55.07 3 11 16.8 102030 49
2011-10-03 05:44:21 51°19.562 2°55.091 2.1 8 16.8 102030 49
2011-10-03 05:44:26 51°19.575 2°55.113 2.5 359 16.8 102030 49
2011-10-03 05:44:31 51°19.589 2°55.134 2.2 10 16.8 102030 49
2011-10-03 05:44:36 51°19.602 2°55.155 1.6 14 16.8 102030 50
2011-10-03 05:44:41 51°19.616 2°55.175 1.5 6 16.8 102030 50
2011-10-03 05:44:46 51°19.63 2°55.196 1.5 5 16.8 102030 49
2011-10-03 05:44:51 51°19.643 2°55.216 2.1 8 16.8 102030 49
2011-10-03 05:44:56 51°19.657 2°55.236 1.8 8 16.8 102030 49
2011-10-03 05:45:01 51°19.671 2°55.256 0.3 2 16.8 102030 49
2011-10-03 05:45:06 51°19.684 2°55.277 0.1 5 16.8 102030 50
2011-10-03 05:45:11 51°19.698 2°55.297 0.1 4 16.8 102030 50
2011-10-03 05:45:16 51°19.711 2°55.318 -999 7 16.8 102030 49
2011-10-03 05:45:21 51°19.725 2°55.339 0.3 11 16.8 102030 49
2011-10-03 05:45:26 51°19.738 2°55.361 2 9 16.8 102030 49
2011-10-03 05:45:31 51°19.75 2°55.383 0.2 7 16.8 102030 49
2011-10-03 05:45:36 51°19.763 2°55.405 0.1 10 16.9 102030 51
2011-10-03 05:45:41 51°19.774 2°55.428 -999 9 16.9 102030 51
2011-10-03 05:45:46 51°19.786 2°55.452 -999 9 16.8 102030 49
2011-10-03 05:45:51 51°19.797 2°55.476 -999 5 16.8 102030 49
2011-10-03 05:45:56 51°19.808 2°55.5 -999 5 16.8 102030 50
2011-10-03 05:46:01 51°19.819 2°55.524 -999 11 16.8 102030 50
2011-10-03 05:46:05 51°19.827 2°55.544 -999 13 16.8 102030 50
2011-10-03 05:46:11 51°19.839 2°55.574 -999 8 16.8 102030 50
2011-10-03 05:46:16 51°19.85 2°55.599 -999 11 16.9 102030 50
2011-10-03 05:46:21 51°19.86 2°55.623 -999 15 16.9 102030 50
2011-10-03 05:46:26 51°19.87 2°55.648 -999 12 16.8 102030 50
2011-10-03 05:46:31 51°19.881 2°55.673 -999 13 16.8 102030 50
2011-10-03 05:46:36 51°19.891 2°55.698 -999 8 16.9 102030 50
2011-10-03 05:46:41 51°19.902 2°55.723 -999 6 16.9 102030 50
2011-10-03 05:46:46 51°19.912 2°55.748 -999 8 16.9 102030 50
2011-10-03 05:46:51 51°19.923 2°55.772 -999 13 16.9 102030 50
2011-10-03 05:46:56 51°19.934 2°55.796 -999 12 16.9 102030 50
2011-10-03 05:47:01 51°19.945 2°55.819 -999 18 16.9 102030 50
2011-10-03 05:47:05 51°19.954 2°55.838 0.1 14 16.9 102040 50
2011-10-03 05:47:11 51°19.968 2°55.866 0.1 14 16.9 102040 50
2011-10-03 05:47:16 51°19.98 2°55.889 0.1 11 16.9 102030 50
2011-10-03 05:47:21 51°19.992 2°55.912 -999 23 16.9 102030 50
2011-10-03 05:47:25 51°20.001 2°55.931 -999 13 16.9 102030 50
2011-10-03 05:47:31 51°20.016 2°55.958 -999 13 16.9 102030 50
2011-10-03 05:47:36 51°20.028 2°55.981 -999 12 16.9 102030 48
2011-10-03 05:47:41 51°20.039 2°56.004 -999 6 16.9 102030 48
2011-10-03 05:47:46 51°20.051 2°56.028 -999 6 16.9 102040 50
2011-10-03 05:47:51 51°20.063 2°56.051 -999 9 16.9 102040 50
2011-10-03 05:47:56 51°20.075 2°56.074 -999 9 16.9 102040 50
2011-10-03 05:48:01 51°20.087 2°56.097 -999 3 16.9 102040 50
2011-10-03 05:48:06 51°20.099 2°56.121 -999 9 16.9 102040 49
2011-10-03 05:48:11 51°20.111 2°56.144 -999 11 16.9 102040 49
2011-10-03 05:48:16 51°20.122 2°56.167 -999 14 17 102040 50
2011-10-03 05:48:21 51°20.134 2°56.19 2.5 7 17 102040 50
2011-10-03 05:48:26 51°20.146 2°56.214 2.2 4 17 102040 50
2011-10-03 05:48:31 51°20.157 2°56.237 2 4 17 102040 50
2011-10-03 05:48:36 51°20.169 2°56.26 1.5 3 17 102030 49
2011-10-03 05:48:41 51°20.181 2°56.284 1.6 359 17 102030 49
2011-10-03 05:48:46 51°20.193 2°56.307 2.2 2 17 102040 49
2011-10-03 05:48:51 51°20.204 2°56.331 2.3 6 17 102040 49
2011-10-03 05:48:56 51°20.216 2°56.354 2.4 9 17 102030 50
2011-10-03 05:49:01 51°20.227 2°56.378 2.3 9 17 102030 50
2011-10-03 05:49:05 51°20.236 2°56.397 2.5 6 17 102040 50
2011-10-03 05:49:11 51°20.249 2°56.426 3.1 11 17 102040 50
2011-10-03 05:49:16 51°20.26 2°56.451 2.4 2 17.1 102030 50
2011-10-03 05:49:21 51°20.271 2°56.475 2.2 8 17.1 102030 50
2011-10-03 05:49:26 51°20.282 2°56.499 2.3 14 17.1 102040 49
2011-10-03 05:49:31 51°20.292 2°56.524 2.9 10 17.1 102040 49
2011-10-03 05:49:36 51°20.303 2°56.549 2.8 5 17.1 102040 50
2011-10-03 05:49:41 51°20.313 2°56.574 2.1 7 17.1 102040 50
2011-10-03 05:49:46 51°20.324 2°56.598 2.9 8 17.1 102030 50
2011-10-03 05:49:51 51°20.334 2°56.624 3.2 7 17.1 102030 50
2011-10-03 05:49:56 51°20.345 2°56.649 2.7 5 17.1 102030 49
2011-10-03 05:50:01 51°20.354 2°56.674 2.8 11 17.1 102030 49
2011-10-03 05:50:06 51°20.364 2°56.699 3.2 10 17.1 102030 49
2011-10-03 05:50:11 51°20.375 2°56.724 2.7 12 17.1 102030 49
2011-10-03 05:50:16 51°20.385 2°56.749 3.2 6 17.1 102040 49
2011-10-03 05:50:21 51°20.395 2°56.774 2.5 6 17.1 102040 49
2011-10-03 05:50:26 51°20.406 2°56.799 2.3 7 17.1 102040 50
2011-10-03 05:50:31 51°20.417 2°56.823 2.4 12 17.1 102040 50
2011-10-03 05:50:36 51°20.428 2°56.848 2.4 15 17.1 102040 49
2011-10-03 05:50:41 51°20.439 2°56.872 2.1 9 17.1 102040 49
2011-10-03 05:50:46 51°20.45 2°56.895 2 7 17.1 102030 48
2011-10-03 05:50:51 51°20.462 2°56.919 2.4 11 17.1 102030 48
2011-10-03 05:50:56 51°20.473 2°56.943 2.5 9 17.1 102030 49
2011-10-03 05:51:01 51°20.485 2°56.966 2.5 10 17.1 102030 49
2011-10-03 05:51:06 51°20.496 2°56.99 2.1 7 17.1 102040 49
2011-10-03 05:51:11 51°20.508 2°57.013 2.6 9 17.1 102040 49
2011-10-03 05:51:16 51°20.52 2°57.036 2.5 11 17.1 102040 50
2011-10-03 05:51:21 51°20.532 2°57.059 2.4 10 17.1 102040 50
2011-10-03 05:51:26 51°20.543 2°57.083 1.5 7 17.2 102040 49
2011-10-03 05:51:31 51°20.555 2°57.106 1.3 13 17.2 102040 49
2011-10-03 05:51:36 51°20.567 2°57.129 0.2 13 17.2 102040 49
2011-10-03 05:51:41 51°20.579 2°57.153 0.9 1 17.2 102040 49
2011-10-03 05:51:46 51°20.591 2°57.176 2.1 9 17.2 102040 49
2011-10-03 05:51:51 51°20.602 2°57.2 2.7 13 17.2 102040 49
2011-10-03 05:51:56 51°20.614 2°57.224 2.4 14 17.2 102040 49
2011-10-03 05:52:01 51°20.625 2°57.247 2.1 6 17.2 102040 49
2011-10-03 05:52:06 51°20.637 2°57.271 3.3 9 17.2 102030 50
2011-10-03 05:52:11 51°20.649 2°57.294 2.4 9 17.2 102030 50
2011-10-03 05:52:16 51°20.66 2°57.318 2.1 11 17.2 102030 50
2011-10-03 05:52:21 51°20.672 2°57.342 2 6 17.2 102030 50
2011-10-03 05:52:26 51°20.684 2°57.366 2.5 16 17.2 102030 50
2011-10-03 05:52:31 51°20.695 2°57.389 2.7 13 17.2 102030 50
2011-10-03 05:52:36 51°20.707 2°57.413 1.6 9 17.2 102030 49
2011-10-03 05:52:41 51°20.719 2°57.437 2.1 9 17.2 102030 49
2011-10-03 05:52:46 51°20.73 2°57.462 2.5 5 17.2 102040 50
2011-10-03 05:52:51 51°20.74 2°57.487 2.5 6 17.2 102040 50
2011-10-03 05:52:56 51°20.751 2°57.512 2.6 9 17.2 102030 47
2011-10-03 05:53:01 51°20.761 2°57.537 3.3 15 17.2 102030 47
2011-10-03 05:53:05 51°20.77 2°57.557 2.8 9 17.2 102030 49
2011-10-03 05:53:11 51°20.782 2°57.588 3.1 10 17.2 102030 49
2011-10-03 05:53:16 51°20.793 2°57.613 0.2 4 17.3 102040 50
2011-10-03 05:53:21 51°20.803 2°57.638 0.1 2 17.3 102040 50
2011-10-03 05:53:26 51°20.814 2°57.663 2.5 1 17.3 102030 48
2011-10-03 05:53:31 51°20.824 2°57.688 2.7 3 17.3 102030 48
2011-10-03 05:53:36 51°20.835 2°57.713 2.7 3 17.3 102030 50
2011-10-03 05:53:41 51°20.846 2°57.737 2.5 7 17.3 102030 50
2011-10-03 05:53:46 51°20.858 2°57.761 2 9 17.3 102030 50
2011-10-03 05:53:51 51°20.869 2°57.785 2.4 -999 17.3 102030 50
2011-10-03 05:53:56 51°20.881 2°57.808 2.8 12 17.3 102030 50
2011-10-03 05:54:01 51°20.893 2°57.831 2.5 13 17.3 102030 50
2011-10-03 05:54:06 51°20.905 2°57.854 2.4 5 17.3 102030 49
2011-10-03 05:54:11 51°20.916 2°57.877 2.6 8 17.3 102030 49
2011-10-03 05:54:16 51°20.929 2°57.9 2.3 12 17.3 102030 50
2011-10-03 05:54:21 51°20.94 2°57.924 3.3 7 17.3 102030 50
2011-10-03 05:54:26 51°20.952 2°57.947 2.6 12 17.3 102030 50
2011-10-03 05:54:31 51°20.964 2°57.971 3.6 8 17.3 102030 50
2011-10-03 05:54:36 51°20.975 2°57.995 2.9 9 17.3 102030 49
2011-10-03 05:54:41 51°20.985 2°58.02 3.6 15 17.3 102030 49
2011-10-03 05:54:46 51°20.996 2°58.045 3.4 14 17.3 102030 49
2011-10-03 05:54:51 51°21.006 2°58.07 4 10 17.3 102030 49
2011-10-03 05:54:56 51°21.017 2°58.095 3.1 9 17.3 102030 50
2011-10-03 05:55:01 51°21.027 2°58.12 4 12 17.3 102030 50
2011-10-03 05:55:06 51°21.038 2°58.145 3.1 10 17.3 102030 49
2011-10-03 05:55:11 51°21.048 2°58.17 3.7 8 17.3 102030 49
2011-10-03 05:55:16 51°21.058 2°58.195 3.3 9 17.3 102030 49
2011-10-03 05:55:21 51°21.069 2°58.221 3.3 6 17.3 102030 49
2011-10-03 05:55:26 51°21.08 2°58.246 3.9 9 17.3 102030 49
2011-10-03 05:55:31 51°21.09 2°58.271 4.2 12 17.3 102030 49
2011-10-03 05:55:36 51°21.101 2°58.296 3.1 9 17.3 102030 47
2011-10-03 05:55:41 51°21.111 2°58.321 3.6 9 17.3 102030 47
2011-10-03 05:55:46 51°21.122 2°58.346 2.8 13 17.3 102030 50
2011-10-03 05:55:51 51°21.133 2°58.37 2.8 8 17.3 102030 50
2011-10-03 05:55:56 51°21.144 2°58.394 3.4 9 17.3 102030 49
2011-10-03 05:56:01 51°21.155 2°58.419 2.5 13 17.3 102030 49
2011-10-03 05:56:06 51°21.168 2°58.442 2.8 15 17.3 102030 48
2011-10-03 05:56:11 51°21.179 2°58.466 2.6 9 17.3 102030 48
2011-10-03 05:56:16 51°21.191 2°58.489 2.7 15 17.4 102030 49
2011-10-03 05:56:21 51°21.204 2°58.512 2.2 11 17.4 102030 49
2011-10-03 05:56:26 51°21.216 2°58.534 2.3 14 17.3 102030 50
2011-10-03 05:56:31 51°21.229 2°58.557 1.9 16 17.3 102030 50
2011-10-03 05:56:36 51°21.242 2°58.579 1.9 11 17.3 102030 49
2011-10-03 05:56:41 51°21.255 2°58.601 1.3 5 17.3 102030 49
2011-10-03 05:56:46 51°21.268 2°58.623 1.7 13 17.3 102030 49
2011-10-03 05:56:51 51°21.281 2°58.645 0.2 9 17.3 102030 49
2011-10-03 05:56:56 51°21.294 2°58.667 0.1 6 17.3 102030 49
2011-10-03 05:57:01 51°21.307 2°58.689 1.9 11 17.3 102030 49
2011-10-03 05:57:06 51°21.32 2°58.711 1.5 15 17.3 102030 49
2011-10-03 05:57:11 51°21.333 2°58.733 0.1 8 17.3 102030 49
2011-10-03 05:57:16 51°21.345 2°58.755 0.1 10 17.4 102030 50
2011-10-03 05:57:21 51°21.358 2°58.777 -999 15 17.4 102030 50
2011-10-03 05:57:25 51°21.369 2°58.795 -999 6 17.3 102030 49
2011-10-03 05:57:31 51°21.384 2°58.822 -999 8 17.3 102030 49
2011-10-03 05:57:36 51°21.397 2°58.844 -999 9 17.4 102030 49
2011-10-03 05:57:41 51°21.409 2°58.867 -999 5 17.4 102030 49
2011-10-03 05:57:46 51°21.422 2°58.89 2 1 17.4 102030 49
2011-10-03 05:57:51 51°21.434 2°58.913 2 8 17.4 102030 49
2011-10-03 05:57:56 51°21.447 2°58.935 2.5 10 17.4 102030 49
2011-10-03 05:58:01 51°21.46 2°58.958 2.9 10 17.4 102030 49
2011-10-03 05:58:06 51°21.472 2°58.98 2.6 14 17.4 102030 49
2011-10-03 05:58:11 51°21.485 2°59.003 2.9 15 17.4 102030 49
2011-10-03 05:58:16 51°21.498 2°59.025 2.5 10 17.4 102030 47
2011-10-03 05:58:21 51°21.51 2°59.048 2.4 8 17.4 102030 47
2011-10-03 05:58:26 51°21.523 2°59.071 2.4 14 17.4 102030 49
2011-10-03 05:58:31 51°21.535 2°59.094 2.7 14 17.4 102030 49
2011-10-03 05:58:36 51°21.547 2°59.117 2.2 9 17.4 102030 48
2011-10-03 05:58:41 51°21.559 2°59.14 3.5 11 17.4 102030 48
2011-10-03 05:58:46 51°21.571 2°59.163 2.4 11 17.4 102030 48
2011-10-03 05:58:51 51°21.583 2°59.187 2 3 17.4 102030 48
2011-10-03 05:58:56 51°21.595 2°59.21 2.8 7 17.4 102030 49
2011-10-03 05:59:01 51°21.607 2°59.234 2.1 5 17.4 102030 49
2011-10-03 05:59:06 51°21.619 2°59.257 3 13 17.4 102030 48
2011-10-03 05:59:11 51°21.631 2°59.281 3 18 17.4 102030 48
2011-10-03 05:59:16 51°21.643 2°59.304 2.4 11 17.4 102030 49
2011-10-03 05:59:21 51°21.655 2°59.328 2.7 9 17.4 102030 49
2011-10-03 05:59:26 51°21.666 2°59.352 2.6 7 17.5 102030 50
2011-10-03 05:59:31 51°21.678 2°59.375 2.8 11 17.5 102030 50
2011-10-03 05:59:36 51°21.69 2°59.399 0.2 5 17.5 102030 49
2011-10-03 05:59:41 51°21.702 2°59.423 2.5 10 17.5 102030 49
2011-10-03 05:59:45 51°21.711 2°59.442 3 12 17.5 102030 50
2011-10-03 05:59:51 51°21.726 2°59.47 3.1 11 17.5 102030 50
2011-10-03 05:59:56 51°21.737 2°59.494 2.7 12 17.5 102030 49
2011-10-03 06:00:01 51°21.749 2°59.518 3.2 10 17.5 102030 49
2011-10-03 06:00:06 51°21.761 2°59.542 2.2 5 17.5 102030 49
2011-10-03 06:00:11 51°21.773 2°59.565 2.5 7 17.5 102030 49
2011-10-03 06:00:16 51°21.785 2°59.589 2.7 9 17.5 102030 49
2011-10-03 06:00:21 51°21.797 2°59.612 2.5 10 17.5 102030 49
2011-10-03 06:00:26 51°21.809 2°59.635 2.3 6 17.5 102030 49
2011-10-03 06:00:31 51°21.822 2°59.658 2.1 8 17.5 102030 49
2011-10-03 06:00:36 51°21.834 2°59.682 2.6 13 17.5 102030 48
2011-10-03 06:00:41 51°21.846 2°59.706 3.6 8 17.5 102030 48
2011-10-03 06:00:46 51°21.857 2°59.73 3.2 7 17.5 102030 49
2011-10-03 06:00:51 51°21.869 2°59.754 4.4 11 17.5 102030 49
2011-10-03 06:00:56 51°21.881 2°59.778 3.5 10 17.5 102030 49
2011-10-03 06:01:01 51°21.892 2°59.802 2.5 7 17.5 102030 49
2011-10-03 06:01:06 51°21.904 2°59.826 3.2 11 17.5 102030 49
2011-10-03 06:01:11 51°21.916 2°59.851 2.3 4 17.5 102030 49
2011-10-03 06:01:16 51°21.927 2°59.875 3.2 9 17.5 102030 48
2011-10-03 06:01:21 51°21.938 2°59.9 2.4 6 17.5 102030 48
2011-10-03 06:01:26 51°21.949 2°59.926 0.2 11 17.5 102030 47
2011-10-03 06:01:31 51°21.959 2°59.951 0.1 2 17.5 102030 47
2011-10-03 06:01:36 51°21.969 2°59.977 0.1 1 17.6 102030 49
2011-10-03 06:01:41 51°21.979 3°0.003 3.8 354 17.6 102030 49
2011-10-03 06:01:45 51°21.988 3°0.023 3.6 3 17.6 102030 49
2011-10-03 06:01:51 51°22 3°0.054 3.8 357 17.6 102030 49
2011-10-03 06:01:56 51°22.012 3°0.079 4.2 1 17.6 102030 48
2011-10-03 06:02:01 51°22.021 3°0.106 3.8 356 17.6 102030 48
2011-10-03 06:02:05 51°22.03 3°0.126 4.3 359 17.6 102030 50
2011-10-03 06:02:11 51°22.042 3°0.157 4 1 17.6 102030 50
2011-10-03 06:02:16 51°22.053 3°0.183 3.5 7 17.6 102030 50
2011-10-03 06:02:21 51°22.063 3°0.208 4.1 1 17.6 102030 50
2011-10-03 06:02:25 51°22.072 3°0.228 3.5 3 17.6 102030 50
2011-10-03 06:02:31 51°22.085 3°0.259 3.5 1 17.6 102030 50
2011-10-03 06:02:36 51°22.097 3°0.283 3.1 358 17.6 102030 48
2011-10-03 06:02:41 51°22.108 3°0.308 2.6 2 17.6 102030 48
2011-10-03 06:02:45 51°22.118 3°0.327 3 358 17.6 102030 49
2011-10-03 06:02:51 51°22.133 3°0.355 3 1 17.6 102030 49
2011-10-03 06:02:56 51°22.145 3°0.379 2.9 360 17.6 102030 48
2011-10-03 06:03:01 51°22.157 3°0.403 2.5 3 17.6 102030 48
2011-10-03 06:03:06 51°22.169 3°0.426 3.1 359 17.6 102030 49
2011-10-03 06:03:11 51°22.181 3°0.45 0.5 4 17.6 102030 49
2011-10-03 06:03:16 51°22.193 3°0.474 0.1 6 17.6 102030 49
2011-10-03 06:03:21 51°22.205 3°0.498 0.1 6 17.6 102030 49
2011-10-03 06:03:26 51°22.217 3°0.522 -999 5 17.6 102030 49
2011-10-03 06:03:31 51°22.228 3°0.547 -999 6 17.6 102030 49
2011-10-03 06:03:36 51°22.239 3°0.572 -999 4 17.6 102030 49
2011-10-03 06:03:41 51°22.25 3°0.597 -999 5 17.6 102030 49
2011-10-03 06:03:46 51°22.26 3°0.623 0.1 8 17.5 102030 49
2011-10-03 06:03:51 51°22.271 3°0.649 0.1 6 17.5 102030 49
2011-10-03 06:03:56 51°22.282 3°0.674 0.4 4 17.5 102030 49
2011-10-03 06:04:01 51°22.292 3°0.7 0.1 9 17.5 102030 49
2011-10-03 06:04:06 51°22.303 3°0.726 3.9 11 17.5 102030 47
2011-10-03 06:04:11 51°22.313 3°0.752 2.9 6 17.5 102030 47
2011-10-03 06:04:16 51°22.323 3°0.777 3.5 5 17.5 102030 49
2011-10-03 06:04:21 51°22.334 3°0.803 3.4 7 17.5 102030 49
2011-10-03 06:04:25 51°22.342 3°0.824 3.6 9 17.5 102030 49
2011-10-03 06:04:31 51°22.355 3°0.855 4.2 9 17.5 102030 49
2011-10-03 06:04:36 51°22.366 3°0.88 3.5 9 17.5 102030 49
2011-10-03 06:04:41 51°22.376 3°0.906 3.1 7 17.5 102030 49
2011-10-03 06:04:46 51°22.387 3°0.931 3.2 7 17.5 102040 49
2011-10-03 06:04:51 51°22.397 3°0.957 2.9 7 17.5 102040 49
2011-10-03 06:04:56 51°22.407 3°0.983 2.9 6 17.5 102030 49
2011-10-03 06:05:01 51°22.418 3°1.008 3.4 9 17.5 102030 49
2011-10-03 06:05:06 51°22.43 3°1.032 2.1 7 17.5 102030 48
2011-10-03 06:05:11 51°22.442 3°1.056 1.2 2 17.5 102030 48
2011-10-03 06:05:16 51°22.453 3°1.08 2.1 6 17.5 102040 49
2011-10-03 06:05:21 51°22.466 3°1.104 1.7 12 17.5 102040 49
2011-10-03 06:05:26 51°22.477 3°1.129 1.6 6 17.5 102040 49
2011-10-03 06:05:31 51°22.489 3°1.153 1.5 7 17.5 102040 49
2011-10-03 06:05:36 51°22.501 3°1.177 2.7 9 17.5 102030 48
2011-10-03 06:05:41 51°22.512 3°1.202 0.6 4 17.5 102030 48
2011-10-03 06:05:46 51°22.523 3°1.227 0.1 7 17.5 102040 49
2011-10-03 06:05:51 51°22.534 3°1.252 0.1 1 17.5 102040 49
2011-10-03 06:05:56 51°22.545 3°1.278 -999 5 17.5 102040 48
2011-10-03 06:06:01 51°22.556 3°1.303 2.6 5 17.5 102040 48
2011-10-03 06:06:06 51°22.567 3°1.328 3.5 358 17.5 102040 49
2011-10-03 06:06:11 51°22.578 3°1.354 1 4 17.5 102040 49
2011-10-03 06:06:16 51°22.589 3°1.379 0.1 358 17.6 102040 49
2011-10-03 06:06:21 51°22.6 3°1.404 0.1 357 17.6 102040 49
2011-10-03 06:06:25 51°22.609 3°1.424 -999 5 17.6 102040 49
2011-10-03 06:06:31 51°22.622 3°1.455 -999 358 17.6 102040 49
2011-10-03 06:06:36 51°22.633 3°1.48 -999 359 17.6 102040 49
2011-10-03 06:06:41 51°22.644 3°1.505 0.2 358 17.6 102040 49
2011-10-03 06:06:46 51°22.655 3°1.53 0.1 358 17.6 102040 48
2011-10-03 06:06:51 51°22.666 3°1.556 0.1 356 17.6 102040 48
2011-10-03 06:06:56 51°22.677 3°1.581 -999 358 17.6 102040 49
2011-10-03 06:07:01 51°22.688 3°1.606 -999 357 17.6 102040 49
2011-10-03 06:07:06 51°22.699 3°1.632 -999 359 17.6 102040 49
2011-10-03 06:07:11 51°22.71 3°1.657 -999 355 17.6 102040 49
2011-10-03 06:07:16 51°22.721 3°1.682 -999 356 17.6 102040 49
2011-10-03 06:07:21 51°22.732 3°1.707 -999 358 17.6 102040 49
2011-10-03 06:07:26 51°22.744 3°1.732 -999 2 17.6 102040 49
2011-10-03 06:07:31 51°22.755 3°1.756 -999 354 17.6 102040 49
2011-10-03 06:07:36 51°22.767 3°1.78 -999 2 17.6 102040 49
2011-10-03 06:07:41 51°22.779 3°1.804 -999 358 17.6 102040 49
2011-10-03 06:07:46 51°22.792 3°1.827 -999 -999 17.6 102040 49
2011-10-03 06:07:51 51°22.804 3°1.85 0.1 357 17.6 102040 49
2011-10-03 06:07:56 51°22.817 3°1.873 0.1 356 17.5 102040 49
2011-10-03 06:08:01 51°22.83 3°1.896 0.1 357 17.5 102040 49
2011-10-03 06:08:05 51°22.84 3°1.915 0.1 352 17.6 102040 49
2011-10-03 06:08:11 51°22.855 3°1.943 0.1 359 17.6 102040 49
2011-10-03 06:08:16 51°22.867 3°1.965 0.1 -999 17.5 102040 49
2011-10-03 06:08:21 51°22.88 3°1.988 -999 355 17.5 102040 49
2011-10-03 06:08:26 51°22.893 3°2.011 -999 353 17.5 102040 49
2011-10-03 06:08:31 51°22.905 3°2.034 -999 355 17.5 102040 49
2011-10-03 06:08:36 51°22.917 3°2.057 0.1 356 17.5 102050 49
2011-10-03 06:08:41 51°22.93 3°2.08 0.1 359 17.5 102050 49
2011-10-03 06:08:46 51°22.942 3°2.104 0.1 1 17.5 102040 49
2011-10-03 06:08:51 51°22.954 3°2.127 -999 1 17.5 102040 49
2011-10-03 06:08:56 51°22.965 3°2.151 -999 4 17.5 102040 49
2011-10-03 06:09:01 51°22.977 3°2.175 -999 360 17.5 102040 49
2011-10-03 06:09:06 51°22.988 3°2.2 -999 359 17.4 102040 49
2011-10-03 06:09:11 51°22.999 3°2.226 -999 360 17.4 102040 49
2011-10-03 06:09:16 51°23.01 3°2.251 -999 3 17.4 102040 49
2011-10-03 06:09:21 51°23.021 3°2.277 0.3 1 17.4 102040 49
2011-10-03 06:09:26 51°23.031 3°2.302 0.1 358 17.4 102050 48
2011-10-03 06:09:31 51°23.042 3°2.328 0.1 -999 17.4 102050 48
2011-10-03 06:09:36 51°23.052 3°2.353 -999 4 17.4 102040 49
2011-10-03 06:09:41 51°23.063 3°2.379 -999 1 17.4 102040 49
2011-10-03 06:09:46 51°23.074 3°2.404 -999 6 17.4 102040 49
2011-10-03 06:09:51 51°23.085 3°2.429 -999 9 17.4 102040 49
2011-10-03 06:09:56 51°23.095 3°2.454 -999 359 17.4 102040 49
2011-10-03 06:10:01 51°23.106 3°2.479 -999 4 17.4 102040 49
2011-10-03 06:10:06 51°23.117 3°2.504 -999 7 17.3 102040 49
2011-10-03 06:10:11 51°23.128 3°2.529 0.3 4 17.3 102040 49
2011-10-03 06:10:16 51°23.139 3°2.554 0.1 358 17.3 102040 49
2011-10-03 06:10:21 51°23.15 3°2.579 0.1 5 17.3 102040 49
2011-10-03 06:10:25 51°23.159 3°2.599 -999 2 17.3 102040 50
2011-10-03 06:10:31 51°23.172 3°2.628 -999 8 17.3 102040 50
2011-10-03 06:10:36 51°23.183 3°2.653 -999 3 17.3 102040 50
2011-10-03 06:10:41 51°23.194 3°2.678 2.3 1 17.3 102040 50
2011-10-03 06:10:46 51°23.205 3°2.703 0.7 8 17.3 102040 49
2011-10-03 06:10:51 51°23.216 3°2.727 0.1 3 17.3 102040 49
2011-10-03 06:10:56 51°23.227 3°2.752 0.1 7 17.3 102050 49
2011-10-03 06:11:01 51°23.238 3°2.777 -999 -999 17.3 102050 49
2011-10-03 06:11:06 51°23.249 3°2.802 -999 4 17.3 102040 49
2011-10-03 06:11:11 51°23.26 3°2.826 -999 3 17.3 102040 49
2011-10-03 06:11:16 51°23.271 3°2.85 -999 3 17.3 102050 49
2011-10-03 06:11:21 51°23.282 3°2.874 -999 -999 17.3 102050 49
2011-10-03 06:11:26 51°23.295 3°2.897 -999 358 17.3 102040 49
2011-10-03 06:11:31 51°23.307 3°2.92 -999 356 17.3 102040 49
2011-10-03 06:11:36 51°23.319 3°2.943 -999 352 17.3 102040 49
2011-10-03 06:11:41 51°23.332 3°2.966 -999 355 17.3 102040 49
2011-10-03 06:11:46 51°23.344 3°2.989 -999 356 17.3 102050 50
2011-10-03 06:11:51 51°23.357 3°3.012 -999 356 17.3 102050 50
2011-10-03 06:11:56 51°23.369 3°3.035 -999 356 17.4 102040 50
2011-10-03 06:12:01 51°23.382 3°3.058 -999 -999 17.4 102040 50
2011-10-03 06:12:06 51°23.394 3°3.081 -999 1 17.4 102050 48
2011-10-03 06:12:11 51°23.406 3°3.105 -999 357 17.4 102050 48
2011-10-03 06:12:16 51°23.417 3°3.129 -999 356 17.4 102040 50
2011-10-03 06:12:21 51°23.429 3°3.153 -999 3 17.4 102040 50
2011-10-03 06:12:25 51°23.438 3°3.172 -999 358 17.4 102050 50
2011-10-03 06:12:31 51°23.451 3°3.202 -999 1 17.4 102050 50
2011-10-03 06:12:36 51°23.462 3°3.227 -999 360 17.3 102040 49
2011-10-03 06:12:41 51°23.472 3°3.252 -999 359 17.3 102040 49
2011-10-03 06:12:46 51°23.483 3°3.276 -999 360 17.3 102040 50
2011-10-03 06:12:51 51°23.494 3°3.301 -999 3 17.3 102040 50
2011-10-03 06:12:56 51°23.505 3°3.326 -999 359 17.3 102050 50
2011-10-03 06:13:01 51°23.517 3°3.349 0.1 359 17.3 102050 50
2011-10-03 06:13:06 51°23.528 3°3.373 0.1 355 17.3 102040 49
2011-10-03 06:13:11 51°23.541 3°3.395 0.1 359 17.3 102040 49
2011-10-03 06:13:16 51°23.553 3°3.417 -999 360 17.3 102040 50
2011-10-03 06:13:21 51°23.566 3°3.439 -999 358 17.3 102040 50
2011-10-03 06:13:26 51°23.58 3°3.46 -999 357 17.3 102040 50
2011-10-03 06:13:31 51°23.593 3°3.481 -999 360 17.3 102040 50
2011-10-03 06:13:36 51°23.607 3°3.501 -999 3 17.3 102040 50
2011-10-03 06:13:41 51°23.62 3°3.522 -999 358 17.3 102040 50
2011-10-03 06:13:46 51°23.634 3°3.543 -999 357 17.3 102040 50
2011-10-03 06:13:51 51°23.647 3°3.564 -999 357 17.3 102040 50
2011-10-03 06:13:56 51°23.66 3°3.585 0.1 359 17.3 102040 50
2011-10-03 06:14:01 51°23.673 3°3.607 0.1 358 17.3 102040 50
2011-10-03 06:14:06 51°23.686 3°3.629 0.1 1 17.3 102050 50
2011-10-03 06:14:11 51°23.699 3°3.651 -999 1 17.3 102050 50
2011-10-03 06:14:17 51°23.715 3°3.678 -999 1 17.3 102040 50
2011-10-03 06:14:21 51°23.725 3°3.696 -999 3 17.3 102040 50
2011-10-03 06:14:25 51°23.735 3°3.713 -999 359 17.3 102040 50
2011-10-03 06:14:31 51°23.751 3°3.74 -999 4 17.3 102040 50
2011-10-03 06:14:36 51°23.764 3°3.761 -999 3 17.3 102040 50
2011-10-03 06:14:41 51°23.777 3°3.783 -999 4 17.3 102040 50
2011-10-03 06:14:46 51°23.79 3°3.805 -999 3 17.2 102040 48
2011-10-03 06:14:51 51°23.803 3°3.827 -999 4 17.2 102040 48
2011-10-03 06:14:56 51°23.815 3°3.85 -999 3 17.2 102050 50
2011-10-03 06:15:01 51°23.828 3°3.873 -999 358 17.2 102050 50
2011-10-03 06:15:06 51°23.84 3°3.895 -999 5 17.2 102040 50
2011-10-03 06:15:11 51°23.853 3°3.918 -999 4 17.2 102040 50
2011-10-03 06:15:16 51°23.865 3°3.94 -999 8 17.2 102040 50
2011-10-03 06:15:21 51°23.878 3°3.963 -999 3 17.2 102040 50
2011-10-03 06:15:26 51°23.891 3°3.984 -999 358 17.2 102040 50
2011-10-03 06:15:31 51°23.904 3°4.006 0.1 360 17.2 102040 50
2011-10-03 06:15:36 51°23.917 3°4.027 1.6 3 17.2 102040 50
2011-10-03 06:15:41 51°23.93 3°4.049 0.3 8 17.2 102040 50
2011-10-03 06:15:46 51°23.942 3°4.072 0.9 1 17.2 102050 50
2011-10-03 06:15:51 51°23.955 3°4.094 1.8 8 17.2 102050 50
2011-10-03 06:15:56 51°23.967 3°4.117 2.6 2 17.2 102050 50
2011-10-03 06:16:01 51°23.98 3°4.139 1.9 5 17.2 102050 50
2011-10-03 06:16:06 51°23.992 3°4.162 0.2 4 17.2 102040 50
2011-10-03 06:16:11 51°24.004 3°4.185 0.1 2 17.2 102040 50
2011-10-03 06:16:16 51°24.015 3°4.209 0.1 -999 17.2 102040 50
2011-10-03 06:16:21 51°24.027 3°4.233 -999 3 17.2 102040 50
2011-10-03 06:16:25 51°24.035 3°4.252 -999 357 17.2 102040 50
2011-10-03 06:16:31 51°24.048 3°4.282 0.1 5 17.2 102040 50
2011-10-03 06:16:36 51°24.058 3°4.308 0.1 4 17.2 102050 50
2011-10-03 06:16:41 51°24.068 3°4.333 3.3 3 17.2 102050 50
2011-10-03 06:16:46 51°24.078 3°4.358 3.4 4 17.2 102040 50
2011-10-03 06:16:51 51°24.087 3°4.384 3.7 2 17.2 102040 50
2011-10-03 06:16:56 51°24.097 3°4.409 3.5 3 17.2 102040 50
2011-10-03 06:17:01 51°24.106 3°4.435 0.2 5 17.2 102040 50
2011-10-03 06:17:06 51°24.116 3°4.461 0.1 4 17.2 102040 49
2011-10-03 06:17:11 51°24.125 3°4.486 -999 2 17.2 102040 49
2011-10-03 06:17:16 51°24.135 3°4.512 0.1 1 17.2 102040 50
2011-10-03 06:17:21 51°24.145 3°4.537 0.1 360 17.2 102040 50
2011-10-03 06:17:26 51°24.155 3°4.562 0.1 359 17.2 102040 48
2011-10-03 06:17:31 51°24.166 3°4.587 -999 1 17.2 102040 48
2011-10-03 06:17:36 51°24.176 3°4.612 0.1 1 17.2 102040 50
2011-10-03 06:17:41 51°24.186 3°4.637 0.1 6 17.2 102040 50
2011-10-03 06:17:46 51°24.197 3°4.661 0.1 359 17.2 102040 50
2011-10-03 06:17:51 51°24.207 3°4.686 0.1 6 17.2 102040 50
2011-10-03 06:17:56 51°24.217 3°4.711 0.1 5 17.2 102040 50
2011-10-03 06:18:01 51°24.228 3°4.736 0.1 357 17.2 102040 50
2011-10-03 06:18:05 51°24.236 3°4.755 0.4 2 17.2 102040 50
2011-10-03 06:18:11 51°24.249 3°4.785 0.1 6 17.2 102040 50
2011-10-03 06:18:16 51°24.259 3°4.81 0.1 -999 17.2 102040 50
2011-10-03 06:18:21 51°24.269 3°4.835 0.1 5 17.2 102040 50
2011-10-03 06:18:25 51°24.277 3°4.854 0.1 4 17.2 102040 50
2011-10-03 06:18:31 51°24.29 3°4.884 0.1 7 17.2 102040 50
2011-10-03 06:18:36 51°24.3 3°4.908 0.1 4 17.2 102040 50
2011-10-03 06:18:41 51°24.311 3°4.932 -999 -999 17.2 102040 50
2011-10-03 06:18:45 51°24.32 3°4.951 -999 358 17.2 102040 50
2011-10-03 06:18:51 51°24.333 3°4.98 -999 4 17.2 102040 50
2011-10-03 06:18:56 51°24.345 3°5.003 -999 3 17.2 102040 50
2011-10-03 06:19:01 51°24.356 3°5.026 -999 3 17.2 102040 50
2011-10-03 06:19:06 51°24.368 3°5.049 -999 6 17.2 102040 50
2011-10-03 06:19:11 51°24.38 3°5.071 -999 3 17.2 102040 50
2011-10-03 06:19:16 51°24.392 3°5.093 -999 4 17.2 102040 50
2011-10-03 06:19:21 51°24.404 3°5.116 -999 3 17.2 102040 50
2011-10-03 06:19:26 51°24.415 3°5.139 -999 9 17.2 102040 50
2011-10-03 06:19:31 51°24.427 3°5.162 -999 5 17.2 102040 50
2011-10-03 06:19:36 51°24.439 3°5.185 -999 6 17.2 102040 50
2011-10-03 06:19:41 51°24.45 3°5.208 -999 2 17.2 102040 50
2011-10-03 06:19:46 51°24.462 3°5.232 -999 360 17.2 102040 50
2011-10-03 06:19:51 51°24.473 3°5.256 -999 8 17.2 102040 50
2011-10-03 06:19:56 51°24.483 3°5.28 -999 2 17.2 102040 50
2011-10-03 06:20:01 51°24.494 3°5.305 -999 6 17.2 102040 50
2011-10-03 06:20:06 51°24.504 3°5.33 -999 7 17.2 102040 48
2011-10-03 06:20:11 51°24.515 3°5.354 -999 5 17.2 102040 48
2011-10-03 06:20:16 51°24.525 3°5.379 -999 3 17.2 102040 49
2011-10-03 06:20:21 51°24.535 3°5.403 -999 9 17.2 102040 49
2011-10-03 06:20:25 51°24.544 3°5.423 -999 10 17.2 102040 50
2011-10-03 06:20:31 51°24.556 3°5.453 -999 5 17.2 102040 50
2011-10-03 06:20:36 51°24.566 3°5.478 -999 8 17.2 102040 49
2011-10-03 06:20:41 51°24.576 3°5.502 -999 7 17.2 102040 49
2011-10-03 06:20:46 51°24.587 3°5.527 -999 11 17.2 102040 49
2011-10-03 06:20:51 51°24.598 3°5.551 -999 7 17.2 102040 49
2011-10-03 06:20:56 51°24.608 3°5.576 -999 5 17.2 102040 50
2011-10-03 06:21:01 51°24.619 3°5.601 -999 5 17.2 102040 50
2011-10-03 06:21:06 51°24.629 3°5.625 -999 10 17.2 102040 50
2011-10-03 06:21:11 51°24.64 3°5.65 -999 7 17.2 102040 50
2011-10-03 06:21:16 51°24.651 3°5.674 -999 7 17.2 102040 50
2011-10-03 06:21:21 51°24.661 3°5.699 -999 7 17.2 102040 50
2011-10-03 06:21:26 51°24.672 3°5.724 0.1 11 17.2 102040 50
2011-10-03 06:21:31 51°24.682 3°5.748 0.1 6 17.2 102040 50
2011-10-03 06:21:36 51°24.693 3°5.773 0.1 1 17.2 102040 49
2011-10-03 06:21:41 51°24.704 3°5.798 -999 5 17.2 102040 49
2011-10-03 06:21:46 51°24.714 3°5.822 -999 7 17.2 102040 50
2011-10-03 06:21:51 51°24.725 3°5.847 -999 2 17.2 102040 50
2011-10-03 06:21:56 51°24.736 3°5.871 -999 360 17.2 102040 50
2011-10-03 06:22:01 51°24.747 3°5.895 -999 9 17.2 102040 50
2011-10-03 06:22:05 51°24.757 3°5.914 0.1 5 17.2 102040 50
2011-10-03 06:22:11 51°24.771 3°5.942 0.1 6 17.2 102040 50
2011-10-03 06:22:16 51°24.783 3°5.965 0.1 7 17.2 102030 50
2011-10-03 06:22:21 51°24.795 3°5.988 -999 1 17.2 102030 50
2011-10-03 06:22:25 51°24.804 3°6.006 -999 5 17.2 102040 50
2011-10-03 06:22:31 51°24.819 3°6.034 -999 3 17.2 102040 50
2011-10-03 06:22:36 51°24.831 3°6.056 -999 2 17.2 102040 50
2011-10-03 06:22:41 51°24.843 3°6.08 -999 8 17.2 102040 50
2011-10-03 06:22:45 51°24.853 3°6.098 -999 9 17.2 102040 48
2011-10-03 06:22:51 51°24.867 3°6.126 0.1 9 17.2 102040 48
2011-10-03 06:22:56 51°24.878 3°6.149 0.1 10 17.2 102040 50
2011-10-03 06:23:01 51°24.89 3°6.173 0.1 4 17.2 102040 50
2011-10-03 06:23:06 51°24.901 3°6.197 -999 6 17.2 102040 49
2011-10-03 06:23:11 51°24.912 3°6.222 -999 7 17.2 102040 49
2011-10-03 06:23:16 51°24.922 3°6.247 -999 7 17.2 102040 49
2011-10-03 06:23:21 51°24.933 3°6.272 2.1 8 17.2 102040 49
2011-10-03 06:23:26 51°24.943 3°6.297 3.7 8 17.2 102040 50
2011-10-03 06:23:31 51°24.954 3°6.322 3.7 7 17.2 102040 50
2011-10-03 06:23:36 51°24.964 3°6.348 3.8 5 17.2 102040 49
2011-10-03 06:23:41 51°24.974 3°6.373 3.2 6 17.2 102040 49
2011-10-03 06:23:46 51°24.985 3°6.398 3.7 360 17.2 102040 49
2011-10-03 06:23:51 51°24.995 3°6.423 2.5 7 17.2 102040 49
2011-10-03 06:23:56 51°25.006 3°6.448 3.4 8 17.2 102040 49
2011-10-03 06:24:01 51°25.016 3°6.474 3.4 4 17.2 102040 49
2011-10-03 06:24:05 51°25.025 3°6.494 3 6 17.2 102040 49
2011-10-03 06:24:11 51°25.037 3°6.524 2.9 7 17.2 102040 49
2011-10-03 06:24:16 51°25.048 3°6.549 3.3 7 17.2 102040 49
2011-10-03 06:24:21 51°25.058 3°6.574 2.7 7 17.2 102040 49
2011-10-03 06:24:25 51°25.067 3°6.594 2.5 6 17.2 102040 50
2011-10-03 06:24:31 51°25.08 3°6.624 2.5 6 17.2 102040 50
2011-10-03 06:24:36 51°25.09 3°6.649 3.1 4 17.2 102040 50
2011-10-03 06:24:41 51°25.101 3°6.674 3.7 7 17.2 102040 50
2011-10-03 06:24:46 51°25.112 3°6.698 3.6 12 17.2 102040 50
2011-10-03 06:24:51 51°25.123 3°6.722 3.1 8 17.2 102040 50
2011-10-03 06:24:56 51°25.134 3°6.747 2.9 9 17.2 102040 50
2011-10-03 06:25:01 51°25.146 3°6.771 2.1 10 17.2 102040 50
2011-10-03 06:25:06 51°25.158 3°6.794 2.8 10 17.2 102040 50
2011-10-03 06:25:11 51°25.17 3°6.817 2.7 10 17.2 102040 50
2011-10-03 06:25:16 51°25.182 3°6.84 2.1 11 17.2 102040 49
2011-10-03 06:25:21 51°25.194 3°6.863 1.4 8 17.2 102040 49
2011-10-03 06:25:26 51°25.207 3°6.886 1.2 12 17.2 102040 48
2011-10-03 06:25:31 51°25.219 3°6.909 0.2 6 17.2 102040 48
2011-10-03 06:25:36 51°25.231 3°6.932 0.1 6 17.2 102040 50
2011-10-03 06:25:41 51°25.243 3°6.955 -999 6 17.2 102040 50
2011-10-03 06:25:46 51°25.255 3°6.978 -999 2 17.2 102040 49
2011-10-03 06:25:51 51°25.266 3°7.002 -999 6 17.2 102040 49
2011-10-03 06:25:56 51°25.278 3°7.027 -999 7 17.2 102040 49
2011-10-03 06:26:01 51°25.289 3°7.051 -999 8 17.2 102040 49
2011-10-03 06:26:06 51°25.299 3°7.076 -999 5 17.2 102040 49
2011-10-03 06:26:11 51°25.309 3°7.101 -999 7 17.2 102040 49
2011-10-03 06:26:16 51°25.32 3°7.127 -999 5 17.2 102040 49
2011-10-03 06:26:21 51°25.329 3°7.153 -999 6 17.2 102040 49
2011-10-03 06:26:25 51°25.337 3°7.173 -999 4 17.2 102040 49
2011-10-03 06:26:31 51°25.349 3°7.205 3.2 5 17.2 102040 49